Cervinia, Italy 16 day weather forecast

Slopes altitude range 2050 m - 3480m

Number of lifts: 57 Pistes: 350km

In some cases the lift and piste totals shown are for the ski domain (e.g. Three Valleys) rather than individual resort (e.g. Courchevel)

Overview

The 16 day weather forecast is fully updated 4 times every day.

    • Tue 19 MAR 2019
    • Tue 19
    • -19C -9C
    • Wed 20 MAR 2019
    • Wed 20
    • -15C -6C
    • Thu 21 MAR 2019
    • Thu 21
    • -12C -1C
    • Fri 22 MAR 2019
    • Fri 22
    • -8C 1C
    • Sat 23 MAR 2019
    • Sat 23
    • -6C 1C
    • Sun 24 MAR 2019
    • Sun 24
    • -7C 0C
    • Mon 25 MAR 2019
    • Mon 25
    • -8C -1C
    • Tue 26 MAR 2019
    • Tue 26
    • -3C 4C
    • Wed 27 MAR 2019
    • Wed 27
    • -1C 4C
    • Thu 28 MAR 2019
    • Thu 28
    • -3C 2C
    • Fri 29 MAR 2019
    • Fri 29
    • 1C 7C
    • Sat 30 MAR 2019
    • Sat 30
    • 0C 3C
    • Sun 31 MAR 2019
    • Sun 31
    • -2C 5C
    • Mon 01 APR 2019
    • Mon 01
    • 0C 4C
    • Tue 02 APR 2019
    • Tue 02
    • 0C 4C
    • Wed 03 APR 2019
    • Wed 03
    • -1C 5C

Date:

Time Type 0°C level Temp Chill Snow Cloud Speed Gust Dir Press
3:00 0m -19°C -19_4 0cm 87% 4mph 5mph 1025mB
6:00 0m -20°C -20_4 0cm 80% 4mph 5mph 1026mB
9:00 1115m -19°C -19_6 0cm 0% 6mph 6mph 1025mB
12:00 1490m -9°C -9_7 0cm 0% 7mph 7mph 1024mB
15:00 1478m -8°C -8_9 0cm 1% 9mph 9mph 1024mB
18:00 759m -8°C -8_6 0cm 30% 6mph 7mph 1027mB
21:00 408m -16°C -16_4 0cm 71% 4mph 5mph 1030mB
0:00 381m -16°C -16_4 0cm 35% 4mph 5mph 1031mB
3:00 363m -16°C -16_4 0cm 0% 4mph 5mph 1032mB
6:00 368m -16°C -16_5 0cm 0% 5mph 5mph 1032mB
9:00 1676m -15°C -15_4 0cm 0% 4mph 4mph 1031mB
12:00 1940m -6°C -6_3 0cm 0% 3mph 3mph 1030mB
15:00 1977m -5°C -5_2 0cm 0% 2mph 2mph 1029mB
18:00 1131m -5°C -5_4 0cm 2% 4mph 4mph 1031mB
21:00 1057m -11°C -11_8 0cm 12% 8mph 9mph 1034mB
0:00 1023m -12°C -12_9 0cm 9% 9mph 10mph 1034mB
3:00 982m -12°C -12_9 0cm 0% 9mph 10mph 1034mB
6:00 970m -12°C -12_9 0cm 0% 9mph 10mph 1034mB
9:00 2255m -12°C -12_9 0cm 0% 9mph 10mph 1032mB
12:00 2598m -1°C -1_7 0cm 0% 7mph 8mph 1030mB
15:00 2631m -1°C -1_5 0cm 0% 5mph 6mph 1028mB
18:00 1619m -1°C -1_6 0cm 0% 6mph 7mph 1031mB
21:00 1465m -9°C -9_8 0cm 0% 8mph 9mph 1033mB
0:00 1482m -9°C -9_9 0cm 42% 9mph 10mph 1033mB
3:00 1488m -9°C -9_8 0cm 83% 8mph 9mph 1032mB
6:00 1544m -9°C -9_8 0cm 67% 8mph 9mph 1032mB
9:00 2766m -8°C -8_6 0cm 0% 6mph 8mph 1030mB
12:00 2951m 1°C 1_6 0cm 0% 6mph 7mph 1028mB
15:00 2946m 1°C 1_4 0cm 0% 4mph 5mph 1027mB
18:00 1924m 1°C 1_4 0cm 0% 4mph 4mph 1029mB
21:00 1928m -6°C -6_7 0cm 0% 7mph 7mph 1031mB
0:00 1888m -6°C -6_6 0cm 5% 6mph 7mph 1030mB
3:00 1824m -6°C -6_5 0cm 19% 5mph 6mph 1030mB
6:00 1848m -7°C -7_6 0cm 14% 6mph 7mph 1029mB
9:00 2895m -6°C -6_3 0cm 0% 3mph 3mph 1028mB
12:00 2999m 1°C 1_2 0cm 0% 2mph 2mph 1026mB
15:00 2957m 2°C 2_1 0cm 0% 1mph 2mph 1024mB
18:00 2060m 2°C 2_1 0cm 0% 1mph 2mph 1025mB
21:00 2078m -5°C -5_5 0cm 0% 5mph 6mph 1027mB
0:00 1957m -6°C -6_5 0cm 0% 5mph 6mph 1027mB
3:00 1694m -7°C -7_1 0cm 0% 1mph 2mph 1026mB
6:00 1686m -8°C -8_1 0cm 4% 1mph 2mph 1026mB
9:00 2581m -7°C -7_5 0cm 0% 5mph 6mph 1025mB
12:00 2775m 0°C 0_7 0cm 0% 7mph 7mph 1024mB
15:00 2750m 0°C 0_8 0cm 63% 8mph 9mph 1022mB
18:00 2164m 0°C 0_7 0cm 79% 7mph 8mph 1023mB
21:00 1936m -6°C -6_5 0cm 90% 5mph 5mph 1025mB
0:00 1855m -6°C -6_3 0cm 93% 3mph 4mph 1025mB
3:00 1759m -7°C -7_5 0cm 96% 5mph 6mph 1024mB
6:00 1592m -8°C -8_5 0cm 69% 5mph 6mph 1024mB
9:00 2410m -8°C -8_6 0cm 0% 6mph 7mph 1023mB
12:00 2688m -1°C -1_5 0cm 30% 5mph 5mph 1021mB
15:00 2643m 0°C 0_7 0cm 0% 7mph 7mph 1020mB
18:00 1952m 0°C 0_4 0cm 0% 4mph 5mph 1022mB
21:00 1788m -7°C -7_3 0cm 0% 3mph 3mph 1024mB
0:00 1710m -7°C -7_2 0cm 3% 2mph 2mph 1025mB
3:00 1592m -8°C -8_1 0cm 0% 1mph 2mph 1026mB
6:00 1570m -9°C -9_3 0cm 0% 3mph 3mph 1027mB
9:00 2268m -3°C -3_1 0cm 1% 1mph 3mph 1026mB
12:00 2618m 4°C 4_1 0cm 0% 1mph 4mph 1025mB
15:00 2762m 5°C 5_4 0cm 0% 4mph 6mph 1024mB
18:00 2429m 5°C 5_6 0cm 0% 6mph 7mph 1026mB
21:00 2330m -1°C -1_7 0cm 0% 7mph 7mph 1029mB
0:00 2343m -1°C -1_5 0cm 0% 5mph 5mph 1029mB
3:00 2149m -2°C -2_3 0cm 0% 3mph 3mph 1029mB
6:00 2147m -2°C -2_3 0cm 0% 3mph 4mph 1029mB
9:00 2568m -1°C -1_1 0cm 1% 1mph 1mph 1028mB
12:00 2677m 4°C 4_3 0cm 0% 3mph 1mph 1026mB
15:00 2697m 5°C 5_2 0cm 0% 2mph 2mph 1024mB
18:00 2303m 5°C 5_1 0cm 0% 1mph 2mph 1026mB
21:00 2155m -1°C -1_4 0cm 37% 4mph 5mph 1028mB
0:00 2132m -1°C -1_4 0cm 63% 4mph 5mph 1028mB
3:00 2028m -2°C -2_3 0cm 94% 3mph 3mph 1028mB
6:00 1917m -3°C -3_2 0cm 93% 2mph 2mph 1028mB
9:00 2184m -3°C -3_2 0cm 68% 2mph 1mph 1027mB
12:00 2442m 2°C 2_4 0cm 42% 4mph 2mph 1025mB
15:00 2518m 3°C 3_3 0cm 6% 3mph 2mph 1023mB
18:00 2401m 3°C 3_1 0cm 3% 1mph 1mph 1024mB
Morning 0mm 0 2225m 0°C 0_3 0cm 1% 3mph 3mph 1025mB
Afternoon 0.03125mm 0 2372m 7°C 7_4 0cm 53% 4mph 5mph 1021mB
Morning 0.0989583mm 0 1913m 0°C 0_4 1cm 98% 4mph 5mph 1023mB
Afternoon 0.1875mm 0 1881m 3°C 3_5 2cm 89% 5mph 8mph 1020mB
Morning 0.713542mm 0 1618m -3°C -3_2 6cm 98% 2mph 3mph 1022mB
Afternoon 0.395833mm 0.0625 2199m 5°C 5_2 3cm 96% 2mph 3mph 1019mB
Morning 0.34375mm 0 2091m -1°C -1_5 3cm 89% 5mph 6mph 1021mB
Afternoon 0.5625mm 1.875 2321m 4°C 4_2 0cm 90% 2mph 4mph 1019mB
Morning 1.11458mm 0.25 2096m 1°C 1_7 9cm 99% 7mph 11mph 1022mB
Afternoon 0.354167mm 0.1875 2253m 4°C 4_6 0cm 89% 6mph 10mph 1020mB
Morning 0.015625mm 0 1587m -3°C -3_3 0cm 52% 3mph 4mph 1024mB
Afternoon 0.0260417mm 0.0625 2359m 5°C 5_6 0cm 49% 6mph 9mph 1024mB

16 day outlook at a glance

Forecast issued: 18/03/2019 23:30:41

Chat

Your comments and questions. In a resort? Let us know what it's like!


Characters left 250

For terms and conditions see Readers Comments on the Cookie and privacy policy page.